EST,Max TemperatureF,Mean TemperatureF,Min TemperatureF,Max Dew PointF,MeanDew PointF,Min DewpointF,Max Humidity, Mean Humidity, Min Humidity, Max Sea Level PressureIn, Mean Sea Level PressureIn, Min Sea Level PressureIn, Max VisibilityMiles, Mean VisibilityMiles, Min VisibilityMiles, Max Wind SpeedMPH, Mean Wind SpeedMPH, Max Gust SpeedMPH,PrecipitationIn, CloudCover, Events, WindDirDegrees
2013-2-1,57,44,32,32,26,16,81,52,28,30.38,30.22,30.15,10,10,10,21,10,29,0.00,0,,292
2013-2-2,51,38,26,43,31,18,100,72,54,30.40,30.29,30.10,10,10,10,10,6,,0.00,0,,67
2013-2-3,59,47,35,41,34,32,93,66,39,30.09,30.00,29.91,10,10,7,18,8,26,0.00,1,,261
2013-2-4,51,40,28,37,34,28,100,79,50,30.17,30.10,30.04,10,10,10,8,2,,0.00,0,,92
2013-2-5,68,50,33,50,42,34,100,78,33,30.08,30.02,29.96,10,10,10,15,4,20,0.00,0,,234
2013-2-6,69,55,41,52,45,41,100,81,35,30.22,30.12,30.03,10,10,5,13,3,,0.00,1,,278
2013-2-7,55,47,39,55,51,39,100,98,88,30.20,30.07,29.74,10,8,2,18,7,26,0.00,5,Rain-Thunderstorm,53
2013-2-8,62,54,46,54,50,46,100,85,55,30.06,29.88,29.69,10,10,3,15,9,22,0.00,4,Rain,290
2013-2-9,59,46,32,48,33,27,100,67,29,30.37,30.24,30.06,10,10,10,14,6,21,0.00,0,,349
2013-2-10,59,44,30,52,42,30,100,87,55,30.44,30.35,30.24,10,10,7,12,3,18,0.00,2,,64
2013-2-11,64,57,50,64,60,50,100,100,100,30.26,30.14,30.06,10,9,3,17,6,24,0.00,7,Rain,216
2013-2-12,60,54,46,59,52,43,100,90,52,30.14,30.03,29.94,10,10,5,10,5,,0.00,7,Rain,305
2013-2-13,68,57,46,64,54,46,100,93,72,29.92,29.80,29.70,10,9,0,15,8,26,0.00,6,Fog-Rain-Thunderstorm,280
2013-2-14,51,45,39,52,41,36,100,84,54,30.10,30.02,29.85,10,10,10,12,5,17,0.00,0,,349
2013-2-15,57,44,32,43,38,32,100,83,44,30.12,30.05,29.98,10,10,7,12,2,,0.00,0,,101
2013-2-16,50,41,32,45,38,32,100,98,62,30.02,29.91,29.83,10,9,1,24,5,32,0.00,4,Rain-Snow,299
2013-2-17,44,35,26,32,24,14,100,70,31,30.32,30.18,30.02,10,10,10,24,9,31,0.00,0,,294
2013-2-18,51,37,23,34,28,21,100,71,35,30.45,30.38,30.30,10,10,10,12,4,16,0.00,0,,162
2013-2-19,64,48,32,55,46,32,100,93,52,30.29,30.11,29.98,10,9,2,17,4,25,0.00,4,Rain,235
2013-2-20,55,45,35,48,35,27,100,71,38,30.17,30.10,30.04,10,10,10,12,6,,0.00,0,,260
2013-2-21,53,42,32,43,36,32,100,79,44,30.22,30.16,30.12,10,10,10,12,3,,0.00,0,,83
2013-2-22,51,46,42,52,47,39,100,93,76,30.24,30.17,30.08,10,8,1,17,8,25,0.00,7,Rain,45
2013-2-23,53,48,42,54,46,43,100,100,100,30.07,29.94,29.80,10,6,0,12,4,,0.00,8,Fog-Rain,314
2013-2-24,66,54,41,52,47,41,100,88,43,30.02,29.94,29.78,10,8,0,12,5,20,0.00,3,Fog-Rain,291
2013-2-25,46,44,41,45,41,37,100,91,76,30.14,30.06,29.98,10,10,4,17,6,23,0.00,5,Rain,51
2013-2-26,69,56,44,68,59,45,100,95,82,30.02,29.75,29.61,10,8,2,24,13,36,0.00,5,Rain-Thunderstorm,154
2013-2-27,60,53,46,55,43,37,100,75,48,29.89,29.83,29.71,10,10,10,16,9,24,0.00,1,,250
2013-2-28,59,48,37,41,37,34,93,68,39,29.90,29.84,29.78,10,10,10,24,9,29,0.00,0,,262